Darstellungsparameter: Aktuell verwendete Einstellungen:
Skalierung der Graphiken ... ?
xyx+y,   Skalierungsfaktor:      Skalierung: Modus: x, Faktor: 1
Darstellungszeitraum ... ?
Vom - - bis: - -   Zeitraum: 06.11.2009 - 12.11.2009
Min/Max/Avg-Anzeige ... ?
Zeige MMA aktuell
Zeige MMA Monat
Zeige MMA alles
Zeige --A aktuell
Zeige --A Monat
Zeige --A alles
Keine MMA-Anzeige
MMA:
Minimum Maximum Average (ber die Originaldaten)
MMA-Basis: 14.04.2020 - 16.05.2020
Quicknavigation für Darstellung... ?
Tage:      1T, 2T, 3T, 5T -1T -2T -3T -5T +1T +2T +3T +5T
Wochen: 1W, 2W, 3W -1W -2W -3W +1W +2W +3W
Monate: 1M, 3M, 6M -1M -3M -6M +1M +3M +6M
Jahre:    1J, 3J, 5J, 10J -1J -3J -5J -10J +1J +3J +5J +10J
Nutze für die Darstellung ... ?
Originaldaten oder Mittelwerte auf ...
Stundenbasis Tagesbasis Wochenbasis
Monatsbasis Jahresbasis      Datenbasis: Original-Daten
Darstellen als:
Statistik (Auto) Statistik J:M      Darstellung:
Zur Graphik,    zurück zur Übersicht aller Sensoren.
 
Tabellarische Datenbersicht: ?
 
Sensor: Nr:Datum:Temp:Abs-Feuchte:Windchill:Wind:
Aussen-T/F 1 06-11-2009 00:00:02 9.3 C 6.56 g/m*3 9.3 C 0 km/h
2 06-11-2009 00:12:02 9.1 C 6.48 g/m*3 9.1 C 0 km/h
3 06-11-2009 00:24:02 8.9 C 6.57 g/m*3 8.9 C 0 km/h
4 06-11-2009 00:36:02 8.9 C 6.57 g/m*3 8.9 C 0 km/h
5 06-11-2009 00:48:02 8.9 C 6.57 g/m*3 8.9 C 0 km/h
6 06-11-2009 01:00:03 9.1 C 6.48 g/m*3 9.1 C 0 km/h
7 06-11-2009 01:12:03 9.2 C 6.43 g/m*3 9.2 C 0 km/h
8 06-11-2009 01:24:03 9.2 C 6.52 g/m*3 9.2 C 0 km/h
9 06-11-2009 01:36:03 9.2 C 6.52 g/m*3 9.2 C 0 km/h
10 06-11-2009 01:48:03 9.2 C 6.52 g/m*3 9.2 C 0 km/h
11 06-11-2009 02:00:03 9 C 6.44 g/m*3 9 C 0 km/h
12 06-11-2009 02:12:03 8.9 C 6.57 g/m*3 8.9 C 0 km/h
13 06-11-2009 02:24:03 9 C 6.52 g/m*3 9 C 0 km/h
14 06-11-2009 02:36:03 9 C 6.52 g/m*3 9 C 0 km/h
15 06-11-2009 02:48:03 9.1 C 6.57 g/m*3 9.1 C 0 km/h
16 06-11-2009 03:00:03 9 C 6.52 g/m*3 9 C 0 km/h
17 06-11-2009 03:12:03 8.8 C 6.53 g/m*3 8.8 C 0 km/h
18 06-11-2009 03:24:03 8.9 C 6.57 g/m*3 8.9 C 0 km/h
19 06-11-2009 03:36:03 8.9 C 6.57 g/m*3 8.9 C 0 km/h
20 06-11-2009 03:48:03 9 C 6.52 g/m*3 9 C 0 km/h
21 06-11-2009 04:00:03 9 C 6.61 g/m*3 9 C 0 km/h
22 06-11-2009 04:12:03 9 C 6.61 g/m*3 9 C 0 km/h
23 06-11-2009 04:24:03 9 C 6.61 g/m*3 9 C 0 km/h
24 06-11-2009 04:36:03 9 C 6.61 g/m*3 9 C 0 km/h
25 06-11-2009 04:48:04 9 C 6.7 g/m*3 9 C 0 km/h
Sensor: Nr:Datum:Temp:Abs-Feuchte:Windchill:Wind:
Aussen-T/F 26 06-11-2009 05:00:04 8.8 C 6.7 g/m*3 8.8 C 0 km/h
27 06-11-2009 05:12:04 8.9 C 6.83 g/m*3 8.9 C 0 km/h
28 06-11-2009 05:24:04 9 C 6.79 g/m*3 9 C 0 km/h
29 06-11-2009 05:36:04 9 C 6.79 g/m*3 9 C 0 km/h
30 06-11-2009 05:48:04 9 C 6.79 g/m*3 9 C 0 km/h
31 06-11-2009 06:00:04 9.1 C 6.83 g/m*3 9.1 C 0 km/h
32 06-11-2009 06:12:04 9.1 C 6.83 g/m*3 9.1 C 0 km/h
33 06-11-2009 06:24:04 9.1 C 6.83 g/m*3 9.1 C 0 km/h
34 06-11-2009 06:36:04 9.1 C 6.83 g/m*3 9.1 C 0 km/h
35 06-11-2009 06:48:04 9 C 6.79 g/m*3 9 C 0 km/h
36 06-11-2009 07:00:04 9 C 6.7 g/m*3 9 C 0 km/h
37 06-11-2009 07:12:02 9.1 C 6.74 g/m*3 9.1 C 0 km/h
38 06-11-2009 07:24:02 9.3 C 6.74 g/m*3 9.3 C 0 km/h
39 06-11-2009 07:36:02 9 C 6.61 g/m*3 9 C 0 km/h
40 06-11-2009 07:48:02 9 C 6.61 g/m*3 9 C 0 km/h
41 06-11-2009 08:00:02 9 C 6.7 g/m*3 9 C 0 km/h
42 06-11-2009 08:12:02 9.1 C 6.74 g/m*3 9.1 C 0 km/h
43 06-11-2009 08:24:02 9 C 6.79 g/m*3 9 C 0 km/h
44 06-11-2009 08:36:02 8.9 C 6.92 g/m*3 8.9 C 0 km/h
45 06-11-2009 08:48:02 9 C 6.96 g/m*3 9 C 0 km/h
46 06-11-2009 09:00:02 9.2 C 7.05 g/m*3 9.2 C 0 km/h
47 06-11-2009 09:12:02 9.6 C 7.05 g/m*3 9.6 C 0 km/h
48 06-11-2009 09:24:02 9.8 C 6.96 g/m*3 9.8 C 0 km/h
49 06-11-2009 09:36:01 10 C 6.77 g/m*3 10 C 0 km/h
50 06-11-2009 09:48:02 10.1 C 6.81 g/m*3 10.1 C 0 km/h
Sensor: Nr:Datum:Temp:Abs-Feuchte:Windchill:Wind:
Aussen-T/F 51 06-11-2009 10:00:02 10.1 C 6.71 g/m*3 10.1 C 0 km/h
52 06-11-2009 10:12:01 10.2 C 6.57 g/m*3 10.2 C 0 km/h
53 06-11-2009 10:24:02 10.4 C 6.46 g/m*3 10.4 C 0 km/h
54 06-11-2009 10:36:01 10.4 C 6.36 g/m*3 10.4 C 0 km/h
55 06-11-2009 10:48:02 10.5 C 6.11 g/m*3 10.5 C 0 km/h
56 06-11-2009 11:00:02 10.9 C 5.97 g/m*3 10.9 C 0 km/h
57 06-11-2009 11:12:02 11 C 6.21 g/m*3 11 C 0 km/h
58 06-11-2009 11:24:02 10.8 C 6.23 g/m*3 10.8 C 0 km/h
59 06-11-2009 11:36:03 10.8 C 6.23 g/m*3 10.8 C 0 km/h
60 06-11-2009 11:48:02 10.8 C 6.23 g/m*3 10.8 C 0 km/h
61 06-11-2009 12:00:02 11 C 6.11 g/m*3 11 C 0 km/h
62 06-11-2009 12:12:01 11 C 5.91 g/m*3 11 C 0 km/h
63 06-11-2009 12:24:02 10.7 C 5.8 g/m*3 10.7 C 0 km/h
64 06-11-2009 12:36:02 10.7 C 5.89 g/m*3 10.7 C 0 km/h
65 06-11-2009 12:48:02 10.5 C 5.82 g/m*3 10.5 C 0 km/h
66 06-11-2009 13:00:02 10.6 C 5.86 g/m*3 10.6 C 0 km/h
67 06-11-2009 13:12:02 10.7 C 5.8 g/m*3 10.7 C 0 km/h
68 06-11-2009 13:24:02 10.8 C 5.54 g/m*3 10.8 C 0 km/h
69 06-11-2009 13:36:02 10.7 C 5.5 g/m*3 10.7 C 0 km/h
70 06-11-2009 13:48:01 10.5 C 5.72 g/m*3 10.5 C 0 km/h
71 06-11-2009 14:00:01 10.4 C 5.78 g/m*3 10.4 C 0 km/h
72 06-11-2009 14:12:01 10.4 C 5.88 g/m*3 10.4 C 0 km/h
73 06-11-2009 14:24:01 10.3 C 5.84 g/m*3 10.3 C 0 km/h
74 06-11-2009 14:36:01 10.4 C 5.88 g/m*3 10.4 C 0 km/h
75 06-11-2009 14:48:01 10.5 C 5.82 g/m*3 10.5 C 0 km/h
Sensor: Nr:Datum:Temp:Abs-Feuchte:Windchill:Wind:
Aussen-T/F 76 06-11-2009 15:00:01 10.6 C 5.66 g/m*3 10.6 C 0 km/h
77 06-11-2009 15:12:01 10.6 C 5.56 g/m*3 10.6 C 0 km/h
78 06-11-2009 15:24:01 10.5 C 5.53 g/m*3 10.5 C 0 km/h
79 06-11-2009 15:36:01 10.5 C 5.63 g/m*3 10.5 C 0 km/h
80 06-11-2009 15:48:01 10.3 C 5.65 g/m*3 10.3 C 0 km/h
81 06-11-2009 16:00:01 10.3 C 5.75 g/m*3 10.3 C 0 km/h
82 06-11-2009 16:12:01 10.2 C 5.71 g/m*3 10.2 C 0 km/h
83 06-11-2009 16:24:02 10.1 C 5.67 g/m*3 10.1 C 0 km/h
84 06-11-2009 16:36:01 10 C 5.64 g/m*3 10 C 0 km/h
85 06-11-2009 16:48:02 9.9 C 5.7 g/m*3 9.9 C 0 km/h
86 06-11-2009 17:00:02 9.9 C 5.7 g/m*3 9.9 C 0 km/h
87 06-11-2009 17:12:02 9.8 C 5.85 g/m*3 9.8 C 0 km/h
88 06-11-2009 17:24:03 9.6 C 5.77 g/m*3 9.6 C 0 km/h
89 06-11-2009 17:36:02 9.5 C 5.92 g/m*3 9.5 C 0 km/h
90 06-11-2009 17:48:02 9.4 C 5.97 g/m*3 9.4 C 0 km/h
91 06-11-2009 18:00:02 9.3 C 6.02 g/m*3 9.3 C 0 km/h
92 06-11-2009 18:12:02 9.3 C 6.02 g/m*3 9.3 C 0 km/h
93 06-11-2009 18:24:02 9.3 C 6.02 g/m*3 9.3 C 0 km/h
94 06-11-2009 18:36:02 9.3 C 6.11 g/m*3 9.3 C 0 km/h
95 06-11-2009 18:48:02 9.2 C 6.07 g/m*3 9.2 C 0 km/h
96 06-11-2009 19:00:02 9.2 C 6.07 g/m*3 9.2 C 0 km/h
97 06-11-2009 19:12:01 9.2 C 6.16 g/m*3 9.2 C 0 km/h
98 06-11-2009 19:24:02 9.2 C 6.16 g/m*3 9.2 C 0 km/h
99 06-11-2009 19:36:02 9.2 C 6.16 g/m*3 9.2 C 0 km/h
100 06-11-2009 19:48:02 9.2 C 6.16 g/m*3 9.2 C 0 km/h
Sensor: Nr:Datum:Temp:Abs-Feuchte:Windchill:Wind:
Aussen-T/F 101 06-11-2009 20:00:02 9.2 C 6.25 g/m*3 9.2 C 0 km/h
102 06-11-2009 20:12:02 9.2 C 6.25 g/m*3 9.2 C 0 km/h
103 06-11-2009 20:24:02 9.2 C 6.16 g/m*3 9.2 C 0 km/h
104 06-11-2009 20:36:03 9 C 6.08 g/m*3 9 C 0 km/h
105 06-11-2009 20:48:02 8.8 C 6.18 g/m*3 8.8 C 0 km/h
106 06-11-2009 21:00:02 8.7 C 6.14 g/m*3 8.7 C 0 km/h
107 06-11-2009 21:12:02 8.8 C 6.18 g/m*3 8.8 C 0 km/h
108 06-11-2009 21:24:02 8.7 C 6.14 g/m*3 8.7 C 0 km/h
109 06-11-2009 21:36:01 8.7 C 6.05 g/m*3 8.7 C 0 km/h
110 06-11-2009 21:48:02 8.7 C 6.05 g/m*3 8.7 C 0 km/h
111 06-11-2009 22:00:02 8.6 C 6.02 g/m*3 8.6 C 0 km/h
112 06-11-2009 22:12:01 8.5 C 6.06 g/m*3 8.5 C 0 km/h
113 06-11-2009 22:24:02 8.4 C 6.02 g/m*3 8.4 C 0 km/h
114 06-11-2009 22:36:01 8.2 C 5.95 g/m*3 8.2 C 0 km/h
115 06-11-2009 22:48:03 8.1 C 5.91 g/m*3 8.1 C 0 km/h
116 06-11-2009 23:00:03 7.9 C 6 g/m*3 7.9 C 0 km/h
117 06-11-2009 23:13:03 7.6 C 5.88 g/m*3 7.6 C 0 km/h
118 06-11-2009 23:25:03 7.4 C 5.88 g/m*3 7.4 C 0 km/h
119 06-11-2009 23:37:03 7.5 C 5.92 g/m*3 7.5 C 0 km/h
120 06-11-2009 23:49:03 7.3 C 5.85 g/m*3 7.3 C 0 km/h
121 07-11-2009 00:01:03 7 C 5.81 g/m*3 7 C 0 km/h
122 07-11-2009 00:13:03 6.9 C 5.93 g/m*3 6.9 C 0 km/h
123 07-11-2009 00:25:03 7.1 C 5.93 g/m*3 7.1 C 0 km/h
124 07-11-2009 00:37:03 7.3 C 5.93 g/m*3 7.3 C 0 km/h
125 07-11-2009 00:49:03 7.3 C 5.85 g/m*3 7.3 C 0 km/h
Sensor: Nr:Datum:Temp:Abs-Feuchte:Windchill:Wind:
Aussen-T/F 126 07-11-2009 01:01:03 7.3 C 5.85 g/m*3 7.3 C 0 km/h
127 07-11-2009 01:13:04 7.3 C 5.85 g/m*3 7.3 C 0 km/h
128 07-11-2009 01:25:04 7.4 C 5.81 g/m*3 7.4 C 0 km/h
129 07-11-2009 01:37:04 7.7 C 5.84 g/m*3 7.7 C 0 km/h
130 07-11-2009 01:49:04 7.6 C 5.72 g/m*3 7.6 C 0 km/h
131 07-11-2009 02:01:04 7.7 C 5.68 g/m*3 7.7 C 0 km/h
132 07-11-2009 02:13:04 7.7 C 5.68 g/m*3 7.7 C 0 km/h
133 07-11-2009 02:25:04 7.7 C 5.68 g/m*3 7.7 C 0 km/h
134 07-11-2009 02:37:04 7.8 C 5.63 g/m*3 7.8 C 0 km/h
135 07-11-2009 02:49:04 7.8 C 5.63 g/m*3 7.8 C 0 km/h
136 07-11-2009 03:01:04 7.8 C 5.63 g/m*3 7.8 C 0 km/h
137 07-11-2009 03:13:04 7.8 C 5.63 g/m*3 7.8 C 0 km/h
138 07-11-2009 03:25:04 7.8 C 5.55 g/m*3 7.8 C 0 km/h
139 07-11-2009 03:37:04 7.8 C 5.47 g/m*3 7.8 C 0 km/h
140 07-11-2009 03:49:04 7.8 C 5.55 g/m*3 7.8 C 0 km/h
141 07-11-2009 04:01:04 7.8 C 5.55 g/m*3 7.8 C 0 km/h
142 07-11-2009 04:13:04 7.8 C 5.47 g/m*3 7.8 C 0 km/h
143 07-11-2009 04:25:04 7.8 C 5.47 g/m*3 7.8 C 0 km/h
144 07-11-2009 04:37:04 7.8 C 5.47 g/m*3 7.8 C 0 km/h
145 07-11-2009 04:49:04 7.7 C 5.43 g/m*3 7.7 C 0 km/h
146 07-11-2009 05:01:04 7.7 C 5.43 g/m*3 7.7 C 0 km/h
147 07-11-2009 05:13:05 7.8 C 5.47 g/m*3 7.8 C 0 km/h
148 07-11-2009 05:25:05 7.7 C 5.43 g/m*3 7.7 C 0 km/h
149 07-11-2009 05:37:05 7.7 C 5.35 g/m*3 7.7 C 0 km/h
150 07-11-2009 05:49:05 7.8 C 5.39 g/m*3 7.8 C 0 km/h
Sensor: Nr:Datum:Temp:Abs-Feuchte:Windchill:Wind:
Aussen-T/F 151 07-11-2009 06:01:05 7.7 C 5.35 g/m*3 7.7 C 0 km/h
152 07-11-2009 06:13:05 7.8 C 5.39 g/m*3 7.8 C 0 km/h
153 07-11-2009 06:25:05 7.9 C 5.34 g/m*3 7.9 C 0 km/h
154 07-11-2009 06:37:05 7.9 C 5.26 g/m*3 7.9 C 0 km/h
155 07-11-2009 06:49:05 7.9 C 5.26 g/m*3 7.9 C 0 km/h
156 07-11-2009 07:01:05 7.1 C 5.54 g/m*3 7.1 C 0 km/h
157 07-11-2009 07:13:05 6.6 C 5.81 g/m*3 6.6 C 0 km/h
158 07-11-2009 07:25:05 6.4 C 5.89 g/m*3 6.4 C 0 km/h
159 07-11-2009 07:37:05 6.3 C 6 g/m*3 6.3 C 0 km/h
160 07-11-2009 07:49:05 6.3 C 6.07 g/m*3 6.3 C 0 km/h
161 07-11-2009 08:01:03 6.3 C 6.07 g/m*3 6.3 C 0 km/h
162 07-11-2009 08:13:03 6.8 C 6.35 g/m*3 6.8 C 0 km/h
163 07-11-2009 08:25:03 6.8 C 6.35 g/m*3 6.8 C 0 km/h
164 07-11-2009 08:37:03 6.9 C 6.24 g/m*3 6.9 C 0 km/h
165 07-11-2009 08:49:02 6.9 C 6.24 g/m*3 6.9 C 0 km/h
166 07-11-2009 09:01:01 7.1 C 6.08 g/m*3 7.1 C 0 km/h
167 07-11-2009 09:13:01 7.5 C 6 g/m*3 7.5 C 0 km/h
168 07-11-2009 09:25:02 7.8 C 5.88 g/m*3 7.8 C 0 km/h
169 07-11-2009 09:37:01 8 C 5.7 g/m*3 8 C 0 km/h
170 07-11-2009 09:49:02 8 C 5.79 g/m*3 8 C 0 km/h
171 07-11-2009 10:01:01 7.8 C 5.71 g/m*3 7.8 C 0 km/h
172 07-11-2009 10:13:01 7.5 C 5.76 g/m*3 7.5 C 0 km/h
173 07-11-2009 10:25:01 7.3 C 5.93 g/m*3 7.3 C 0 km/h
174 07-11-2009 10:37:01 7.3 C 5.93 g/m*3 7.3 C 0 km/h
175 07-11-2009 10:49:02 7.5 C 5.92 g/m*3 7.5 C 0 km/h
Sensor: Nr:Datum:Temp:Abs-Feuchte:Windchill:Wind:
Aussen-T/F 176 07-11-2009 11:01:01 7.8 C 5.96 g/m*3 7.8 C 0 km/h
177 07-11-2009 11:13:01 7.8 C 5.96 g/m*3 7.8 C 0 km/h
178 07-11-2009 11:25:02 7.9 C 5.91 g/m*3 7.9 C 0 km/h
179 07-11-2009 11:37:02 7.9 C 5.91 g/m*3 7.9 C 0 km/h
180 07-11-2009 11:49:01 8.1 C 5.91 g/m*3 8.1 C 0 km/h
181 07-11-2009 12:01:02 8.3 C 5.82 g/m*3 8.3 C 0 km/h
182 07-11-2009 12:13:02 8.3 C 5.9 g/m*3 8.3 C 0 km/h
183 07-11-2009 12:25:01 8.3 C 5.9 g/m*3 8.3 C 0 km/h
184 07-11-2009 12:37:02 8.3 C 5.98 g/m*3 8.3 C 0 km/h
185 07-11-2009 12:49:02 8.4 C 6.02 g/m*3 8.4 C 0 km/h
186 07-11-2009 13:01:02 8.5 C 5.98 g/m*3 8.5 C 0 km/h
187 07-11-2009 13:13:02 8.5 C 5.98 g/m*3 8.5 C 0 km/h
188 07-11-2009 13:25:01 8.3 C 6.07 g/m*3 8.3 C 0 km/h
189 07-11-2009 13:37:02 8 C 6.2 g/m*3 8 C 0 km/h
190 07-11-2009 13:49:02 8.5 C 6.4 g/m*3 8.5 C 0 km/h
191 07-11-2009 14:01:02 9.2 C 6.52 g/m*3 9.2 C 0 km/h
192 07-11-2009 14:13:02 9.7 C 6.36 g/m*3 9.7 C 0 km/h
193 07-11-2009 14:25:02 10 C 6.2 g/m*3 10 C 0 km/h
194 07-11-2009 14:37:02 10.5 C 6.21 g/m*3 10.5 C 0 km/h
195 07-11-2009 14:49:02 10.6 C 5.95 g/m*3 10.6 C 0 km/h
196 07-11-2009 15:01:02 10.8 C 6.03 g/m*3 10.8 C 0 km/h
197 07-11-2009 15:13:03 11.2 C 5.98 g/m*3 11.2 C 0 km/h
198 07-11-2009 15:25:02 10.8 C 5.93 g/m*3 10.8 C 0 km/h
199 07-11-2009 15:37:02 10.7 C 5.99 g/m*3 10.7 C 0 km/h
200 07-11-2009 15:49:02 10.3 C 5.94 g/m*3 10.3 C 0 km/h
Sensor: Nr:Datum:Temp:Abs-Feuchte:Windchill:Wind:
Aussen-T/F 201 07-11-2009 16:01:02 10.1 C 5.86 g/m*3 10.1 C 0 km/h
202 07-11-2009 16:13:02 9.9 C 5.98 g/m*3 9.9 C 0 km/h
203 07-11-2009 16:25:02 9.9 C 5.98 g/m*3 9.9 C 0 km/h
204 07-11-2009 16:37:02 9.8 C 5.94 g/m*3 9.8 C 0 km/h
205 07-11-2009 16:49:02 9.4 C 5.88 g/m*3 9.4 C 0 km/h
206 07-11-2009 17:01:02 9 C 5.82 g/m*3 9 C 0 km/h
207 07-11-2009 17:13:02 8.5 C 5.81 g/m*3 8.5 C 0 km/h
208 07-11-2009 17:25:03 8.1 C 5.74 g/m*3 8.1 C 0 km/h
209 07-11-2009 17:37:02 7.9 C 5.91 g/m*3 7.9 C 0 km/h
210 07-11-2009 17:49:03 8 C 6.04 g/m*3 8 C 0 km/h
211 07-11-2009 18:01:02 8.2 C 6.11 g/m*3 8.2 C 0 km/h
212 07-11-2009 18:13:02 8.5 C 6.15 g/m*3 8.5 C 0 km/h
213 07-11-2009 18:25:02 8.7 C 6.14 g/m*3 8.7 C 0 km/h
214 07-11-2009 18:37:02 8.7 C 6.14 g/m*3 8.7 C 0 km/h
215 07-11-2009 18:49:02 8.7 C 6.14 g/m*3 8.7 C 0 km/h
216 07-11-2009 19:01:02 8.6 C 6.1 g/m*3 8.6 C 0 km/h
217 07-11-2009 19:13:02 8.6 C 6.19 g/m*3 8.6 C 0 km/h
218 07-11-2009 19:25:02 8.6 C 6.19 g/m*3 8.6 C 0 km/h
219 07-11-2009 19:37:02 8.5 C 6.15 g/m*3 8.5 C 0 km/h
220 07-11-2009 19:49:02 8.5 C 6.15 g/m*3 8.5 C 0 km/h
221 07-11-2009 20:01:01 8.5 C 6.15 g/m*3 8.5 C 0 km/h
222 07-11-2009 20:13:01 8.4 C 6.11 g/m*3 8.4 C 0 km/h
223 07-11-2009 20:25:02 8.3 C 6.07 g/m*3 8.3 C 0 km/h
224 07-11-2009 20:37:02 8.3 C 6.15 g/m*3 8.3 C 0 km/h
225 07-11-2009 20:49:01 8.2 C 6.11 g/m*3 8.2 C 0 km/h
Sensor: Nr:Datum:Temp:Abs-Feuchte:Windchill:Wind:
Aussen-T/F 226 07-11-2009 21:01:01 8.3 C 6.24 g/m*3 8.3 C 0 km/h
227 07-11-2009 21:13:01 8.3 C 6.24 g/m*3 8.3 C 0 km/h
228 07-11-2009 21:25:01 8.2 C 6.2 g/m*3 8.2 C 0 km/h
229 07-11-2009 21:37:02 8.1 C 6.24 g/m*3 8.1 C 0 km/h
230 07-11-2009 21:49:02 8 C 6.28 g/m*3 8 C 0 km/h
231 07-11-2009 22:01:02 8 C 6.28 g/m*3 8 C 0 km/h
232 07-11-2009 22:13:02 7.9 C 6.32 g/m*3 7.9 C 0 km/h
233 07-11-2009 22:25:02 7.8 C 6.37 g/m*3 7.8 C 0 km/h
234 07-11-2009 22:37:01 7.9 C 6.41 g/m*3 7.9 C 0 km/h
235 07-11-2009 22:49:02 7.9 C 6.41 g/m*3 7.9 C 0 km/h
236 07-11-2009 23:01:01 7.9 C 6.41 g/m*3 7.9 C 0 km/h
237 07-11-2009 23:13:01 7.9 C 6.41 g/m*3 7.9 C 0 km/h
238 07-11-2009 23:25:02 7.8 C 6.37 g/m*3 7.8 C 0 km/h
239 07-11-2009 23:37:02 7.9 C 6.49 g/m*3 7.9 C 0 km/h
240 07-11-2009 23:49:02 7.8 C 6.45 g/m*3 7.8 C 0 km/h
241 08-11-2009 00:02:02 7.6 C 6.44 g/m*3 7.6 C 0 km/h
242 08-11-2009 00:14:02 7.3 C 6.48 g/m*3 7.3 C 0 km/h
243 08-11-2009 00:26:02 7.1 C 6.47 g/m*3 7.1 C 0 km/h
244 08-11-2009 00:38:02 7.1 C 6.55 g/m*3 7.1 C 0 km/h
245 08-11-2009 00:50:02 7.1 C 6.55 g/m*3 7.1 C 0 km/h
246 08-11-2009 01:02:03 7.2 C 6.67 g/m*3 7.2 C 0 km/h
247 08-11-2009 01:14:03 7.2 C 6.67 g/m*3 7.2 C 0 km/h
248 08-11-2009 01:26:03 7.2 C 6.67 g/m*3 7.2 C 0 km/h
249 08-11-2009 01:38:03 7.3 C 6.72 g/m*3 7.3 C 0 km/h
250 08-11-2009 01:50:03 7.3 C 6.64 g/m*3 7.3 C 0 km/h
Sensor: Nr:Datum:Temp:Abs-Feuchte:Windchill:Wind:
Aussen-T/F 251 08-11-2009 02:02:03 7.3 C 6.64 g/m*3 7.3 C 0 km/h
252 08-11-2009 02:14:03 7.3 C 6.64 g/m*3 7.3 C 0 km/h
253 08-11-2009 02:26:03 7.4 C 6.68 g/m*3 7.4 C 0 km/h
254 08-11-2009 02:38:03 7.3 C 6.56 g/m*3 7.3 C 0 km/h
255 08-11-2009 02:50:03 7.2 C 6.52 g/m*3 7.2 C 0 km/h
256 08-11-2009 03:02:03 7.1 C 6.55 g/m*3 7.1 C 0 km/h
257 08-11-2009 03:14:03 7 C 6.51 g/m*3 7 C 0 km/h
258 08-11-2009 03:26:03 7 C 6.59 g/m*3 7 C 0 km/h
259 08-11-2009 03:38:03 7 C 6.59 g/m*3 7 C 0 km/h
260 08-11-2009 03:50:03 7 C 6.59 g/m*3 7 C 0 km/h
261 08-11-2009 04:02:03 7.1 C 6.71 g/m*3 7.1 C 0 km/h
262 08-11-2009 04:14:03 7 C 6.66 g/m*3 7 C 0 km/h
263 08-11-2009 04:26:03 7 C 6.66 g/m*3 7 C 0 km/h
264 08-11-2009 04:38:03 7 C 6.74 g/m*3 7 C 0 km/h
265 08-11-2009 04:50:03 7 C 6.74 g/m*3 7 C 0 km/h
266 08-11-2009 05:02:04 7.1 C 6.79 g/m*3 7.1 C 0 km/h
267 08-11-2009 05:14:04 6.5 C 6.52 g/m*3 6.5 C 0 km/h
268 08-11-2009 05:26:04 6.2 C 6.4 g/m*3 6.2 C 0 km/h
269 08-11-2009 05:38:04 5.8 C 6.3 g/m*3 5.8 C 0 km/h
270 08-11-2009 05:50:04 5.4 C 6.14 g/m*3 5.4 C 0 km/h
271 08-11-2009 06:02:04 5.1 C 6.09 g/m*3 5.1 C 0 km/h
272 08-11-2009 06:14:04 4.9 C 6.01 g/m*3 4.9 C 0 km/h
273 08-11-2009 06:26:04 4.8 C 6.04 g/m*3 4.8 C 0 km/h
274 08-11-2009 06:38:04 5 C 6.12 g/m*3 5 C 0 km/h
275 08-11-2009 06:50:04 5.1 C 6.16 g/m*3 5.1 C 0 km/h
Sensor: Nr:Datum:Temp:Abs-Feuchte:Windchill:Wind:
Aussen-T/F 276 08-11-2009 07:02:04 5.1 C 6.22 g/m*3 5.1 C 0 km/h
277 08-11-2009 07:14:04 4.9 C 6.14 g/m*3 4.9 C 0 km/h
278 08-11-2009 07:26:04 4.6 C 6.02 g/m*3 4.6 C 0 km/h
279 08-11-2009 07:38:04 4.4 C 5.94 g/m*3 4.4 C 0 km/h
280 08-11-2009 07:50:04 4.3 C 5.9 g/m*3 4.3 C 0 km/h
281 08-11-2009 08:02:04 4.1 C 5.82 g/m*3 4.1 C 0 km/h
282 08-11-2009 08:14:04 4 C 5.79 g/m*3 4 C 0 km/h
283 08-11-2009 08:26:04 3.8 C 5.77 g/m*3 3.8 C 0 km/h
284 08-11-2009 08:38:04 3.8 C 5.77 g/m*3 3.8 C 0 km/h
285 08-11-2009 08:50:04 3.7 C 5.73 g/m*3 3.7 C 0 km/h
286 08-11-2009 09:02:05 3.7 C 5.8 g/m*3 3.7 C 0 km/h
287 08-11-2009 09:14:05 3.6 C 5.76 g/m*3 3.6 C 0 km/h
288 08-11-2009 09:26:05 3.7 C 5.8 g/m*3 3.7 C 0 km/h
289 08-11-2009 09:38:05 4 C 5.91 g/m*3 4 C 0 km/h
290 08-11-2009 09:50:05 4.4 C 6.14 g/m*3 4.4 C 0 km/h
291 08-11-2009 10:02:01 4.5 C 6.11 g/m*3 4.5 C 0 km/h
292 08-11-2009 10:14:01 4.5 C 6.11 g/m*3 4.5 C 0 km/h
293 08-11-2009 10:26:02 4.8 C 6.24 g/m*3 4.8 C 0 km/h
294 08-11-2009 10:38:01 5.2 C 6.33 g/m*3 5.2 C 0 km/h
295 08-11-2009 10:50:02 5.6 C 6.5 g/m*3 5.6 C 0 km/h
296 08-11-2009 11:02:01 6.3 C 6.66 g/m*3 6.3 C 0 km/h
297 08-11-2009 11:14:01 6.8 C 6.65 g/m*3 6.8 C 0 km/h
298 08-11-2009 11:26:02 7.1 C 6.24 g/m*3 7.1 C 0 km/h
299 08-11-2009 11:38:01 7.4 C 6.28 g/m*3 7.4 C 0 km/h
300 08-11-2009 11:50:02 7.6 C 6.12 g/m*3 7.6 C 0 km/h
Sensor: Nr:Datum:Temp:Abs-Feuchte:Windchill:Wind:
Aussen-T/F 301 08-11-2009 12:02:03 7.6 C 5.88 g/m*3 7.6 C 0 km/h
302 08-11-2009 12:14:03 7.8 C 5.79 g/m*3 7.8 C 0 km/h
303 08-11-2009 12:26:02 8.2 C 5.78 g/m*3 8.2 C 0 km/h
304 08-11-2009 12:38:02 8.2 C 5.69 g/m*3 8.2 C 0 km/h
305 08-11-2009 12:50:01 8.2 C 5.69 g/m*3 8.2 C 0 km/h
306 08-11-2009 13:02:02 8.2 C 5.78 g/m*3 8.2 C 0 km/h
307 08-11-2009 13:14:02 8.3 C 5.98 g/m*3 8.3 C 0 km/h
308 08-11-2009 13:26:01 8.4 C 5.94 g/m*3 8.4 C 0 km/h
309 08-11-2009 13:38:01 8 C 5.79 g/m*3 8 C 0 km/h
310 08-11-2009 13:50:02 7.9 C 5.91 g/m*3 7.9 C 0 km/h
311 08-11-2009 14:02:02 8.2 C 6.03 g/m*3 8.2 C 0 km/h
312 08-11-2009 14:14:03 8.4 C 6.02 g/m*3 8.4 C 0 km/h
313 08-11-2009 14:26:01 8.4 C 6.02 g/m*3 8.4 C 0 km/h
314 08-11-2009 14:38:01 8.3 C 5.98 g/m*3 8.3 C 0 km/h
315 08-11-2009 14:50:01 8.3 C 5.98 g/m*3 8.3 C 0 km/h
316 08-11-2009 15:02:01 8.5 C 6.06 g/m*3 8.5 C 0 km/h
317 08-11-2009 15:14:01 8.9 C 6.22 g/m*3 8.9 C 0 km/h
318 08-11-2009 15:26:02 9 C 6.08 g/m*3 9 C 0 km/h
319 08-11-2009 15:38:01 8.9 C 6.04 g/m*3 8.9 C 0 km/h
320 08-11-2009 15:50:02 8.9 C 6.22 g/m*3 8.9 C 0 km/h
321 08-11-2009 16:02:02 8.7 C 6.14 g/m*3 8.7 C 0 km/h
322 08-11-2009 16:14:02 8.6 C 6.1 g/m*3 8.6 C 0 km/h
323 08-11-2009 16:26:03 8.5 C 6.15 g/m*3 8.5 C 0 km/h
324 08-11-2009 16:38:02 8.4 C 6.19 g/m*3 8.4 C 0 km/h
325 08-11-2009 16:50:03 8.2 C 6.2 g/m*3 8.2 C 0 km/h
Sensor: Nr:Datum:Temp:Abs-Feuchte:Windchill:Wind:
Aussen-T/F 326 08-11-2009 17:02:02 8.1 C 6.24 g/m*3 8.1 C 0 km/h
327 08-11-2009 17:14:02 8 C 6.2 g/m*3 8 C 0 km/h
328 08-11-2009 17:26:03 8 C 6.2 g/m*3 8 C 0 km/h
329 08-11-2009 17:38:02 7.7 C 6.24 g/m*3 7.7 C 0 km/h
330 08-11-2009 17:50:02 7.5 C 6.24 g/m*3 7.5 C 0 km/h
331 08-11-2009 18:02:02 7.4 C 6.28 g/m*3 7.4 C 0 km/h
332 08-11-2009 18:14:02 7.4 C 6.36 g/m*3 7.4 C 0 km/h
333 08-11-2009 18:26:02 7.2 C 6.44 g/m*3 7.2 C 0 km/h
334 08-11-2009 18:38:03 7.1 C 6.47 g/m*3 7.1 C 0 km/h
335 08-11-2009 18:50:02 7.2 C 6.59 g/m*3 7.2 C 0 km/h
336 08-11-2009 19:02:01 7.3 C 6.64 g/m*3 7.3 C 0 km/h
337 08-11-2009 19:14:01 7.4 C 6.68 g/m*3 7.4 C 0 km/h
338 08-11-2009 19:26:02 7.4 C 6.68 g/m*3 7.4 C 0 km/h
339 08-11-2009 19:38:02 7.4 C 6.68 g/m*3 7.4 C 0 km/h
340 08-11-2009 19:50:02 7.4 C 6.68 g/m*3 7.4 C 0 km/h
341 08-11-2009 20:02:03 7.4 C 6.68 g/m*3 7.4 C 0 km/h
342 08-11-2009 20:14:03 7.5 C 6.72 g/m*3 7.5 C 0 km/h
343 08-11-2009 20:26:02 7.5 C 6.72 g/m*3 7.5 C 0 km/h
344 08-11-2009 20:38:02 7.5 C 6.64 g/m*3 7.5 C 0 km/h
345 08-11-2009 20:50:01 7.5 C 6.64 g/m*3 7.5 C 0 km/h
346 08-11-2009 21:02:02 7.6 C 6.69 g/m*3 7.6 C 0 km/h
347 08-11-2009 21:14:02 7.5 C 6.56 g/m*3 7.5 C 0 km/h
348 08-11-2009 21:26:01 7.4 C 6.52 g/m*3 7.4 C 0 km/h
349 08-11-2009 21:38:01 7.4 C 6.6 g/m*3 7.4 C 0 km/h
350 08-11-2009 21:50:01 7.4 C 6.6 g/m*3 7.4 C 0 km/h
Sensor: Nr:Datum:Temp:Abs-Feuchte:Windchill:Wind:
Aussen-T/F 351 08-11-2009 22:03:02 7.6 C 6.69 g/m*3 7.6 C 0 km/h
352 08-11-2009 22:15:02 7.5 C 6.56 g/m*3 7.5 C 0 km/h
353 08-11-2009 22:27:02 7.5 C 6.56 g/m*3 7.5 C 0 km/h
354 08-11-2009 22:39:02 7.6 C 6.61 g/m*3 7.6 C 0 km/h
355 08-11-2009 22:51:02 7.5 C 6.56 g/m*3 7.5 C 0 km/h
356 08-11-2009 23:03:02 7.5 C 6.56 g/m*3 7.5 C 0 km/h
357 08-11-2009 23:15:02 7.5 C 6.48 g/m*3 7.5 C 0 km/h
358 08-11-2009 23:27:02 7.5 C 6.48 g/m*3 7.5 C 0 km/h
359 08-11-2009 23:39:02 7.4 C 6.44 g/m*3 7.4 C 0 km/h
360 08-11-2009 23:51:02 7.3 C 6.4 g/m*3 7.3 C 0 km/h
361 09-11-2009 00:03:02 7.1 C 6.32 g/m*3 7.1 C 0 km/h
362 09-11-2009 00:15:02 7 C 6.35 g/m*3 7 C 0 km/h
363 09-11-2009 00:27:02 7 C 6.35 g/m*3 7 C 0 km/h
364 09-11-2009 00:39:02 6.9 C 6.39 g/m*3 6.9 C 0 km/h
365 09-11-2009 00:51:02 6.7 C 6.31 g/m*3 6.7 C 0 km/h
366 09-11-2009 01:03:02 6.8 C 6.35 g/m*3 6.8 C 0 km/h
367 09-11-2009 01:15:02 6.8 C 6.42 g/m*3 6.8 C 0 km/h
368 09-11-2009 01:27:02 6.8 C 6.35 g/m*3 6.8 C 0 km/h
369 09-11-2009 01:39:02 6.8 C 6.35 g/m*3 6.8 C 0 km/h
370 09-11-2009 01:51:02 6.8 C 6.35 g/m*3 6.8 C 0 km/h
371 09-11-2009 02:03:02 6.8 C 6.27 g/m*3 6.8 C 0 km/h
372 09-11-2009 02:15:03 6.9 C 6.31 g/m*3 6.9 C 0 km/h
373 09-11-2009 02:27:03 6.9 C 6.24 g/m*3 6.9 C 0 km/h
374 09-11-2009 02:39:03 7 C 6.2 g/m*3 7 C 0 km/h
375 09-11-2009 02:51:03 7 C 6.12 g/m*3 7 C 0 km/h
Sensor: Nr:Datum:Temp:Abs-Feuchte:Windchill:Wind:
Aussen-T/F 376 09-11-2009 03:03:03 7 C 6.12 g/m*3 7 C 0 km/h
377 09-11-2009 03:15:03 7.1 C 6.08 g/m*3 7.1 C 0 km/h
378 09-11-2009 03:27:03 7 C 6.04 g/m*3 7 C 0 km/h
379 09-11-2009 03:39:03 7 C 6.04 g/m*3 7 C 0 km/h
380 09-11-2009 03:51:03 7 C 6.04 g/m*3 7 C 0 km/h
381 09-11-2009 04:03:03 7 C 6.04 g/m*3 7 C 0 km/h
382 09-11-2009 04:15:03 7 C 5.97 g/m*3 7 C 0 km/h
383 09-11-2009 04:27:03 7.1 C 6.01 g/m*3 7.1 C 0 km/h
384 09-11-2009 04:39:03 7.1 C 5.93 g/m*3 7.1 C 0 km/h
385 09-11-2009 04:51:03 7.1 C 5.93 g/m*3 7.1 C 0 km/h
386 09-11-2009 05:03:03 7.2 C 5.89 g/m*3 7.2 C 0 km/h
387 09-11-2009 05:15:03 7.2 C 5.89 g/m*3 7.2 C 0 km/h
388 09-11-2009 05:27:03 7.2 C 5.89 g/m*3 7.2 C 0 km/h
389 09-11-2009 05:39:03 7.1 C 5.85 g/m*3 7.1 C 0 km/h
390 09-11-2009 05:51:03 7.1 C 5.85 g/m*3 7.1 C 0 km/h
391 09-11-2009 06:03:04 6.9 C 5.93 g/m*3 6.9 C 0 km/h
392 09-11-2009 06:15:04 7 C 5.89 g/m*3 7 C 0 km/h
393 09-11-2009 06:27:04 7.1 C 5.77 g/m*3 7.1 C 0 km/h
394 09-11-2009 06:39:04 7.1 C 5.77 g/m*3 7.1 C 0 km/h
395 09-11-2009 06:51:04 7 C 5.73 g/m*3 7 C 0 km/h
396 09-11-2009 07:03:02 7 C 5.73 g/m*3 7 C 0 km/h
397 09-11-2009 07:15:02 7 C 5.66 g/m*3 7 C 0 km/h
398 09-11-2009 07:27:02 7 C 5.66 g/m*3 7 C 0 km/h
399 09-11-2009 07:39:01 6.9 C 5.7 g/m*3 6.9 C 0 km/h
400 09-11-2009 07:51:02 6.9 C 5.62 g/m*3 6.9 C 0 km/h
Sensor: Nr:Datum:Temp:Abs-Feuchte:Windchill:Wind:
Aussen-T/F 401 09-11-2009 08:03:01 6.9 C 5.62 g/m*3 6.9 C 0 km/h
402 09-11-2009 08:15:02 6.9 C 5.62 g/m*3 6.9 C 0 km/h
403 09-11-2009 08:27:02 6.9 C 5.62 g/m*3 6.9 C 0 km/h
404 09-11-2009 08:39:01 6.9 C 5.62 g/m*3 6.9 C 0 km/h
405 09-11-2009 08:51:02 6.9 C 5.62 g/m*3 6.9 C 0 km/h
406 09-11-2009 09:03:02 6.8 C 5.58 g/m*3 6.8 C 0 km/h
407 09-11-2009 09:15:02 6.8 C 5.66 g/m*3 6.8 C 0 km/h
408 09-11-2009 09:27:02 6.9 C 5.7 g/m*3 6.9 C 0 km/h
409 09-11-2009 09:39:02 7 C 5.58 g/m*3 7 C 0 km/h
410 09-11-2009 09:51:02 7 C 5.58 g/m*3 7 C 0 km/h
411 09-11-2009 10:03:02 6.9 C 5.62 g/m*3 6.9 C 0 km/h
412 09-11-2009 10:15:01 6.9 C 5.7 g/m*3 6.9 C 0 km/h
413 09-11-2009 10:27:01 6.8 C 5.81 g/m*3 6.8 C 0 km/h
414 09-11-2009 10:39:01 6.7 C 5.85 g/m*3 6.7 C 0 km/h
415 09-11-2009 10:51:01 6.6 C 6.04 g/m*3 6.6 C 0 km/h
416 09-11-2009 11:03:02 6.4 C 6.11 g/m*3 6.4 C 0 km/h
417 09-11-2009 11:15:02 6.4 C 6.26 g/m*3 6.4 C 0 km/h
418 09-11-2009 11:27:02 6.5 C 6.37 g/m*3 6.5 C 0 km/h
419 09-11-2009 11:39:01 6.7 C 6.53 g/m*3 6.7 C 0 km/h
420 09-11-2009 11:51:01 6.3 C 6.29 g/m*3 6.3 C 0 km/h
421 09-11-2009 12:03:02 6.3 C 6.37 g/m*3 6.3 C 0 km/h
422 09-11-2009 12:15:02 6.3 C 6.37 g/m*3 6.3 C 0 km/h
423 09-11-2009 12:27:02 6.3 C 6.44 g/m*3 6.3 C 0 km/h
424 09-11-2009 12:39:01 6.2 C 6.4 g/m*3 6.2 C 0 km/h
425 09-11-2009 12:51:01 6.2 C 6.4 g/m*3 6.2 C 0 km/h
Sensor: Nr:Datum:Temp:Abs-Feuchte:Windchill:Wind:
Aussen-T/F 426 09-11-2009 13:03:01 6.2 C 6.4 g/m*3 6.2 C 0 km/h
427 09-11-2009 13:15:02 6.2 C 6.4 g/m*3 6.2 C 0 km/h
428 09-11-2009 13:27:02 6.2 C 6.4 g/m*3 6.2 C 0 km/h
429 09-11-2009 13:39:01 6.2 C 6.4 g/m*3 6.2 C 0 km/h
430 09-11-2009 13:51:03 6.2 C 6.4 g/m*3 6.2 C 0 km/h
431 09-11-2009 14:03:02 6.2 C 6.4 g/m*3 6.2 C 0 km/h
432 09-11-2009 14:15:02 6.3 C 6.44 g/m*3 6.3 C 0 km/h
433 09-11-2009 14:27:03 6.2 C 6.4 g/m*3 6.2 C 0 km/h
434 09-11-2009 14:39:02 6.2 C 6.47 g/m*3 6.2 C 0 km/h
435 09-11-2009 14:51:02 6.1 C 6.5 g/m*3 6.1 C 0 km/h
436 09-11-2009 15:03:01 6 C 6.46 g/m*3 6 C 0 km/h
437 09-11-2009 15:15:02 5.9 C 6.56 g/m*3 5.9 C 0 km/h
438 09-11-2009 15:27:02 6 C 6.6 g/m*3 6 C 0 km/h
439 09-11-2009 15:39:02 5.8 C 6.59 g/m*3 5.8 C 0 km/h
440 09-11-2009 15:51:01 5.9 C 6.71 g/m*3 5.9 C 0 km/h
441 09-11-2009 16:03:01 5.8 C 6.66 g/m*3 5.8 C 0 km/h
442 09-11-2009 16:15:01 5.7 C 6.62 g/m*3 5.7 C 0 km/h
443 09-11-2009 16:27:01 5.7 C 6.69 g/m*3 5.7 C 0 km/h
444 09-11-2009 16:39:02 5.7 C 6.69 g/m*3 5.7 C 0 km/h
445 09-11-2009 16:51:02 5.7 C 6.69 g/m*3 5.7 C 0 km/h
446 09-11-2009 17:03:02 5.6 C 6.72 g/m*3 5.6 C 0 km/h
447 09-11-2009 17:15:01 5.5 C 6.67 g/m*3 5.5 C 0 km/h
448 09-11-2009 17:27:01 5.4 C 6.63 g/m*3 5.4 C 0 km/h
449 09-11-2009 17:39:02 5.3 C 6.58 g/m*3 5.3 C 0 km/h
450 09-11-2009 17:51:02 5.2 C 6.54 g/m*3 5.2 C 0 km/h
Sensor: Nr:Datum:Temp:Abs-Feuchte:Windchill:Wind:
Aussen-T/F 451 09-11-2009 18:03:02 5.2 C 6.54 g/m*3 5.2 C 0 km/h
452 09-11-2009 18:15:02 5.1 C 6.5 g/m*3 5.1 C 0 km/h
453 09-11-2009 18:27:02 5.1 C 6.5 g/m*3 5.1 C 0 km/h
454 09-11-2009 18:39:02 5 C 6.46 g/m*3 5 C 0 km/h
455 09-11-2009 18:51:01 5 C 6.46 g/m*3 5 C 0 km/h
456 09-11-2009 19:03:01 5 C 6.46 g/m*3 5 C 0 km/h
457 09-11-2009 19:15:01 5.1 C 6.5 g/m*3 5.1 C 0 km/h
458 09-11-2009 19:27:01 5.1 C 6.5 g/m*3 5.1 C 0 km/h
459 09-11-2009 19:39:01 5.2 C 6.54 g/m*3 5.2 C 0 km/h
460 09-11-2009 19:51:01 5.2 C 6.54 g/m*3 5.2 C 0 km/h
461 09-11-2009 20:03:01 5.2 C 6.54 g/m*3 5.2 C 0 km/h
462 09-11-2009 20:15:02 5.2 C 6.54 g/m*3 5.2 C 0 km/h
463 09-11-2009 20:27:02 5.2 C 6.54 g/m*3 5.2 C 0 km/h
464 09-11-2009 20:39:01 5.2 C 6.54 g/m*3 5.2 C 0 km/h
465 09-11-2009 20:51:01 5.2 C 6.54 g/m*3 5.2 C 0 km/h
466 09-11-2009 21:03:01 5.1 C 6.5 g/m*3 5.1 C 0 km/h
467 09-11-2009 21:15:01 5.1 C 6.5 g/m*3 5.1 C 0 km/h
468 09-11-2009 21:27:01 5.1 C 6.5 g/m*3 5.1 C 0 km/h
469 09-11-2009 21:39:02 5.1 C 6.5 g/m*3 5.1 C 0 km/h
470 09-11-2009 21:51:02 5 C 6.46 g/m*3 5 C 0 km/h
471 09-11-2009 22:03:02 5 C 6.46 g/m*3 5 C 0 km/h
472 09-11-2009 22:16:40 5 C 6.46 g/m*3 5 C 0 km/h
473 09-11-2009 22:28:40 5 C 6.46 g/m*3 5 C 0 km/h
474 09-11-2009 22:40:40 5 C 6.46 g/m*3 5 C 0 km/h
475 09-11-2009 22:52:40 5 C 6.46 g/m*3 5 C 0 km/h
Sensor: Nr:Datum:Temp:Abs-Feuchte:Windchill:Wind:
Aussen-T/F 476 09-11-2009 23:04:40 5 C 6.46 g/m*3 5 C 0 km/h
477 09-11-2009 23:16:40 5 C 6.46 g/m*3 5 C 0 km/h
478 09-11-2009 23:28:40 5 C 6.46 g/m*3 5 C 0 km/h
479 09-11-2009 23:40:40 4.9 C 6.41 g/m*3 4.9 C 0 km/h
480 09-11-2009 23:52:41 5 C 6.46 g/m*3 5 C 0 km/h
481 10-11-2009 00:04:41 5 C 6.46 g/m*3 5 C 0 km/h
482 10-11-2009 00:16:41 5 C 6.46 g/m*3 5 C 0 km/h
483 10-11-2009 00:28:41 5 C 6.46 g/m*3 5 C 0 km/h
484 10-11-2009 00:40:41 5 C 6.46 g/m*3 5 C 0 km/h
485 10-11-2009 00:52:41 4.9 C 6.41 g/m*3 4.9 C 0 km/h
486 10-11-2009 01:04:41 4.9 C 6.41 g/m*3 4.9 C 0 km/h
487 10-11-2009 01:16:41 5 C 6.46 g/m*3 5 C 0 km/h
488 10-11-2009 01:28:41 5 C 6.46 g/m*3 5 C 0 km/h
489 10-11-2009 01:40:41 5 C 6.46 g/m*3 5 C 0 km/h
490 10-11-2009 01:52:41 5 C 6.46 g/m*3 5 C 0 km/h
491 10-11-2009 02:04:41 5 C 6.46 g/m*3 5 C 0 km/h
492 10-11-2009 02:16:41 5 C 6.46 g/m*3 5 C 0 km/h
493 10-11-2009 02:28:41 4.9 C 6.41 g/m*3 4.9 C 0 km/h
494 10-11-2009 02:40:41 4.9 C 6.41 g/m*3 4.9 C 0 km/h
495 10-11-2009 02:52:41 4.9 C 6.41 g/m*3 4.9 C 0 km/h
496 10-11-2009 03:04:41 4.8 C 6.37 g/m*3 4.8 C 0 km/h
497 10-11-2009 03:16:41 4.9 C 6.41 g/m*3 4.9 C 0 km/h
498 10-11-2009 03:28:41 4.9 C 6.41 g/m*3 4.9 C 0 km/h
499 10-11-2009 03:40:42 5 C 6.46 g/m*3 5 C 0 km/h
500 10-11-2009 03:52:42 5 C 6.46 g/m*3 5 C 0 km/h
Sensor: Nr:Datum:Temp:Abs-Feuchte:Windchill:Wind:
Aussen-T/F 501 10-11-2009 04:04:42 5 C 6.46 g/m*3 5 C 0 km/h
502 10-11-2009 04:16:42 5 C 6.46 g/m*3 5 C 0 km/h
503 10-11-2009 04:28:42 5.1 C 6.5 g/m*3 5.1 C 0 km/h
504 10-11-2009 04:40:42 5.1 C 6.5 g/m*3 5.1 C 0 km/h
505 10-11-2009 04:52:42 5.1 C 6.5 g/m*3 5.1 C 0 km/h
506 10-11-2009 05:04:42 5.1 C 6.5 g/m*3 5.1 C 0 km/h
507 10-11-2009 05:16:42 5.2 C 6.54 g/m*3 5.2 C 0 km/h
508 10-11-2009 05:28:42 5.2 C 6.54 g/m*3 5.2 C 0 km/h
509 10-11-2009 05:40:42 5.2 C 6.54 g/m*3 5.2 C 0 km/h
510 10-11-2009 05:52:42 5.3 C 6.58 g/m*3 5.3 C 0 km/h
511 10-11-2009 06:04:42 5.3 C 6.58 g/m*3 5.3 C 0 km/h
512 10-11-2009 06:16:42 5.4 C 6.63 g/m*3 5.4 C 0 km/h
513 10-11-2009 06:28:42 5.4 C 6.63 g/m*3 5.4 C 0 km/h
514 10-11-2009 06:40:42 5.4 C 6.63 g/m*3 5.4 C 0 km/h
515 10-11-2009 06:52:02 5.4 C 6.63 g/m*3 5.4 C 0 km/h
516 10-11-2009 07:04:03 5.4 C 6.63 g/m*3 5.4 C 0 km/h
517 10-11-2009 07:16:02 5.4 C 6.63 g/m*3 5.4 C 0 km/h
518 10-11-2009 07:28:02 5.4 C 6.63 g/m*3 5.4 C 0 km/h
519 10-11-2009 07:40:02 5.4 C 6.63 g/m*3 5.4 C 0 km/h
520 10-11-2009 07:52:01 5.3 C 6.58 g/m*3 5.3 C 0 km/h
521 10-11-2009 08:04:02 5.3 C 6.58 g/m*3 5.3 C 0 km/h
522 10-11-2009 08:16:01 5.3 C 6.58 g/m*3 5.3 C 0 km/h
523 10-11-2009 08:28:01 5.2 C 6.54 g/m*3 5.2 C 0 km/h
524 10-11-2009 08:40:02 5.2 C 6.54 g/m*3 5.2 C 0 km/h
525 10-11-2009 08:52:02 5.3 C 6.58 g/m*3 5.3 C 0 km/h
Sensor: Nr:Datum:Temp:Abs-Feuchte:Windchill:Wind:
Aussen-T/F 526 10-11-2009 09:04:02 5.4 C 6.63 g/m*3 5.4 C 0 km/h
527 10-11-2009 09:16:01 5.6 C 6.72 g/m*3 5.6 C 0 km/h
528 10-11-2009 09:28:01 5.7 C 6.76 g/m*3 5.7 C 0 km/h
529 10-11-2009 09:40:02 5.9 C 6.85 g/m*3 5.9 C 0 km/h
530 10-11-2009 09:52:02 5.9 C 6.85 g/m*3 5.9 C 0 km/h
531 10-11-2009 10:04:02 5.8 C 6.81 g/m*3 5.8 C 0 km/h
532 10-11-2009 10:16:02 5.7 C 6.76 g/m*3 5.7 C 0 km/h
533 10-11-2009 10:28:02 5.6 C 6.72 g/m*3 5.6 C 0 km/h
534 10-11-2009 10:40:01 5.8 C 6.81 g/m*3 5.8 C 0 km/h
535 10-11-2009 10:52:02 5.9 C 6.85 g/m*3 5.9 C 0 km/h
536 10-11-2009 11:04:01 6 C 6.9 g/m*3 6 C 0 km/h
537 10-11-2009 11:16:01 6.3 C 7.03 g/m*3 6.3 C 0 km/h
538 10-11-2009 11:28:01 6 C 6.9 g/m*3 6 C 0 km/h
539 10-11-2009 11:40:02 6.2 C 6.99 g/m*3 6.2 C 0 km/h
540 10-11-2009 11:52:02 6.4 C 7.08 g/m*3 6.4 C 0 km/h
541 10-11-2009 12:04:01 6.4 C 7.08 g/m*3 6.4 C 0 km/h
542 10-11-2009 12:16:02 6.3 C 7.03 g/m*3 6.3 C 0 km/h
543 10-11-2009 12:28:02 6.3 C 7.03 g/m*3 6.3 C 0 km/h
544 10-11-2009 12:40:02 6.3 C 7.03 g/m*3 6.3 C 0 km/h
545 10-11-2009 12:52:01 6.3 C 7.03 g/m*3 6.3 C 0 km/h
546 10-11-2009 13:04:02 6.6 C 7.17 g/m*3 6.6 C 0 km/h
547 10-11-2009 13:16:01 6.6 C 7.17 g/m*3 6.6 C 0 km/h
548 10-11-2009 13:28:01 7 C 7.28 g/m*3 7 C 0 km/h
549 10-11-2009 13:40:02 7.5 C 7.44 g/m*3 7.5 C 0 km/h
550 10-11-2009 13:52:02 7.5 C 7.2 g/m*3 7.5 C 0 km/h
Sensor: Nr:Datum:Temp:Abs-Feuchte:Windchill:Wind:
Aussen-T/F 551 10-11-2009 14:04:02 7.8 C 7.26 g/m*3 7.8 C 0 km/h
552 10-11-2009 14:16:01 8 C 7.19 g/m*3 8 C 0 km/h
553 10-11-2009 14:28:01 7.8 C 6.94 g/m*3 7.8 C 0 km/h
554 10-11-2009 14:40:02 7.7 C 6.89 g/m*3 7.7 C 0 km/h
555 10-11-2009 14:52:02 7.6 C 6.93 g/m*3 7.6 C 0 km/h
556 10-11-2009 15:04:02 7.6 C 7.01 g/m*3 7.6 C 0 km/h
557 10-11-2009 15:16:01 7.4 C 7 g/m*3 7.4 C 0 km/h
558 10-11-2009 15:28:01 7.1 C 6.86 g/m*3 7.1 C 0 km/h
559 10-11-2009 15:40:02 6.9 C 6.93 g/m*3 6.9 C 0 km/h
560 10-11-2009 15:52:02 6.8 C 6.88 g/m*3 6.8 C 0 km/h
561 10-11-2009 16:04:02 6.8 C 6.96 g/m*3 6.8 C 0 km/h
562 10-11-2009 16:16:01 6.7 C 6.99 g/m*3 6.7 C 0 km/h
563 10-11-2009 16:28:01 6.7 C 6.99 g/m*3 6.7 C 0 km/h
564 10-11-2009 16:40:02 6.6 C 6.95 g/m*3 6.6 C 0 km/h
565 10-11-2009 16:52:02 6.5 C 6.97 g/m*3 6.5 C 0 km/h
566 10-11-2009 17:04:02 6.5 C 6.97 g/m*3 6.5 C 0 km/h
567 10-11-2009 17:16:02 6.5 C 6.97 g/m*3 6.5 C 0 km/h
568 10-11-2009 17:28:02 6.5 C 6.97 g/m*3 6.5 C 0 km/h
569 10-11-2009 17:40:02 6.5 C 6.97 g/m*3 6.5 C 0 km/h
570 10-11-2009 17:52:02 6.5 C 6.97 g/m*3 6.5 C 0 km/h
571 10-11-2009 18:04:01 6.5 C 6.97 g/m*3 6.5 C 0 km/h
572 10-11-2009 18:16:02 6.5 C 6.97 g/m*3 6.5 C 0 km/h
573 10-11-2009 18:28:02 6.6 C 6.95 g/m*3 6.6 C 0 km/h
574 10-11-2009 18:40:01 6.5 C 6.9 g/m*3 6.5 C 0 km/h
575 10-11-2009 18:52:03 6.6 C 6.87 g/m*3 6.6 C 0 km/h
Sensor: Nr:Datum:Temp:Abs-Feuchte:Windchill:Wind:
Aussen-T/F 576 10-11-2009 19:04:02 6.6 C 6.87 g/m*3 6.6 C 0 km/h
577 10-11-2009 19:16:02 6.6 C 6.87 g/m*3 6.6 C 0 km/h
578 10-11-2009 19:28:02 6.7 C 6.91 g/m*3 6.7 C 0 km/h
579 10-11-2009 19:40:02 6.7 C 6.91 g/m*3 6.7 C 0 km/h
580 10-11-2009 19:52:02 6.7 C 6.84 g/m*3 6.7 C 0 km/h
581 10-11-2009 20:04:02 6.7 C 6.84 g/m*3 6.7 C 0 km/h
582 10-11-2009 20:16:02 6.7 C 6.84 g/m*3 6.7 C 0 km/h
583 10-11-2009 20:28:02 6.7 C 6.84 g/m*3 6.7 C 0 km/h
584 10-11-2009 20:40:01 6.7 C 6.84 g/m*3 6.7 C 0 km/h
585 10-11-2009 20:52:02 6.7 C 6.91 g/m*3 6.7 C 0 km/h
586 10-11-2009 21:04:02 6.6 C 6.87 g/m*3 6.6 C 0 km/h
587 10-11-2009 21:16:02 6.6 C 6.95 g/m*3 6.6 C 0 km/h
588 10-11-2009 21:28:02 6.6 C 6.95 g/m*3 6.6 C 0 km/h
589 10-11-2009 21:40:01 6.6 C 6.95 g/m*3 6.6 C 0 km/h
590 10-11-2009 21:53:02 6.6 C 6.95 g/m*3 6.6 C 0 km/h
591 10-11-2009 22:05:02 6.6 C 7.02 g/m*3 6.6 C 0 km/h
592 10-11-2009 22:17:02 6.5 C 6.97 g/m*3 6.5 C 0 km/h
593 10-11-2009 22:29:02 6.5 C 6.97 g/m*3 6.5 C 0 km/h
594 10-11-2009 22:41:02 6.5 C 7.05 g/m*3 6.5 C 0 km/h
595 10-11-2009 22:53:02 6.5 C 7.05 g/m*3 6.5 C 0 km/h
596 10-11-2009 23:05:02 6.5 C 7.05 g/m*3 6.5 C 0 km/h
597 10-11-2009 23:17:02 6.5 C 7.05 g/m*3 6.5 C 0 km/h
598 10-11-2009 23:29:02 6.5 C 7.05 g/m*3 6.5 C 0 km/h
599 10-11-2009 23:41:02 6.5 C 7.12 g/m*3 6.5 C 0 km/h
600 10-11-2009 23:53:02 6.5 C 7.12 g/m*3 6.5 C 0 km/h
Sensor: Nr:Datum:Temp:Abs-Feuchte:Windchill:Wind:
Aussen-T/F 601 11-11-2009 00:05:02 6.5 C 7.12 g/m*3 6.5 C 0 km/h
602 11-11-2009 00:17:02 6.5 C 7.12 g/m*3 6.5 C 0 km/h
603 11-11-2009 00:29:03 6.5 C 7.12 g/m*3 6.5 C 0 km/h
604 11-11-2009 00:41:03 6.4 C 7.08 g/m*3 6.4 C 0 km/h
605 11-11-2009 00:53:03 6.3 C 7.03 g/m*3 6.3 C 0 km/h
606 11-11-2009 01:05:03 6.3 C 7.03 g/m*3 6.3 C 0 km/h
607 11-11-2009 01:17:03 6.3 C 7.03 g/m*3 6.3 C 0 km/h
608 11-11-2009 01:29:03 6.2 C 6.99 g/m*3 6.2 C 0 km/h
609 11-11-2009 01:41:03 6.2 C 6.99 g/m*3 6.2 C 0 km/h
610 11-11-2009 01:53:03 6.2 C 6.99 g/m*3 6.2 C 0 km/h
611 11-11-2009 02:05:03 5.9 C 6.85 g/m*3 5.9 C 0 km/h
612 11-11-2009 02:17:03 5.4 C 6.63 g/m*3 5.4 C 0 km/h
613 11-11-2009 02:29:03 5.2 C 6.54 g/m*3 5.2 C 0 km/h
614 11-11-2009 02:41:03 5 C 6.46 g/m*3 5 C 0 km/h
615 11-11-2009 02:53:03 5.1 C 6.5 g/m*3 5.1 C 0 km/h
616 11-11-2009 03:05:03 5.2 C 6.54 g/m*3 5.2 C 0 km/h
617 11-11-2009 03:17:03 5.4 C 6.63 g/m*3 5.4 C 0 km/h
618 11-11-2009 03:29:03 5.4 C 6.63 g/m*3 5.4 C 0 km/h
619 11-11-2009 03:41:03 5.4 C 6.63 g/m*3 5.4 C 0 km/h
620 11-11-2009 03:53:03 5.4 C 6.63 g/m*3 5.4 C 0 km/h
621 11-11-2009 04:05:03 5.4 C 6.63 g/m*3 5.4 C 0 km/h
622 11-11-2009 04:17:04 5.4 C 6.63 g/m*3 5.4 C 0 km/h
623 11-11-2009 04:29:04 5.4 C 6.63 g/m*3 5.4 C 0 km/h
624 11-11-2009 04:41:04 5.4 C 6.63 g/m*3 5.4 C 0 km/h
625 11-11-2009 04:53:04 5.4 C 6.56 g/m*3 5.4 C 0 km/h
Sensor: Nr:Datum:Temp:Abs-Feuchte:Windchill:Wind:
Aussen-T/F 626 11-11-2009 05:05:04 5.4 C 6.49 g/m*3 5.4 C 0 km/h
627 11-11-2009 05:17:04 5.5 C 6.39 g/m*3 5.5 C 0 km/h
628 11-11-2009 05:29:04 5.5 C 6.32 g/m*3 5.5 C 0 km/h
629 11-11-2009 05:41:04 5.5 C 6.25 g/m*3 5.5 C 0 km/h
630 11-11-2009 05:53:04 5.6 C 6.15 g/m*3 5.6 C 0 km/h
631 11-11-2009 06:05:04 5.5 C 6.04 g/m*3 5.5 C 0 km/h
632 11-11-2009 06:17:04 5.6 C 6.01 g/m*3 5.6 C 0 km/h
633 11-11-2009 06:29:04 5.6 C 6.01 g/m*3 5.6 C 0 km/h
634 11-11-2009 06:41:04 5.7 C 6.05 g/m*3 5.7 C 0 km/h
635 11-11-2009 06:53:04 5.7 C 5.98 g/m*3 5.7 C 0 km/h
636 11-11-2009 07:05:02 5.7 C 5.98 g/m*3 5.7 C 0 km/h
637 11-11-2009 07:17:02 5.7 C 5.91 g/m*3 5.7 C 0 km/h
638 11-11-2009 07:29:02 5.7 C 5.91 g/m*3 5.7 C 0 km/h
639 11-11-2009 07:41:02 5.7 C 5.84 g/m*3 5.7 C 0 km/h
640 11-11-2009 07:53:02 5.7 C 5.84 g/m*3 5.7 C 0 km/h
641 11-11-2009 08:05:02 5.7 C 5.84 g/m*3 5.7 C 0 km/h
642 11-11-2009 08:17:02 5.7 C 5.84 g/m*3 5.7 C 0 km/h
643 11-11-2009 08:29:02 5.7 C 5.84 g/m*3 5.7 C 0 km/h
644 11-11-2009 08:41:02 5.7 C 5.84 g/m*3 5.7 C 0 km/h
645 11-11-2009 08:53:02 5.7 C 5.84 g/m*3 5.7 C 0 km/h
646 11-11-2009 09:05:02 5.8 C 5.87 g/m*3 5.8 C 0 km/h
647 11-11-2009 09:17:03 5.9 C 5.84 g/m*3 5.9 C 0 km/h
648 11-11-2009 09:29:03 6 C 5.81 g/m*3 6 C 0 km/h
649 11-11-2009 09:41:02 6 C 5.88 g/m*3 6 C 0 km/h
650 11-11-2009 09:53:02 6.1 C 5.92 g/m*3 6.1 C 0 km/h
Sensor: Nr:Datum:Temp:Abs-Feuchte:Windchill:Wind:
Aussen-T/F 651 11-11-2009 10:05:02 6.2 C 6.03 g/m*3 6.2 C 0 km/h
652 11-11-2009 10:17:03 6.3 C 6.07 g/m*3 6.3 C 0 km/h
653 11-11-2009 10:29:03 6.5 C 6.22 g/m*3 6.5 C 0 km/h
654 11-11-2009 10:41:02 6.5 C 6.22 g/m*3 6.5 C 0 km/h
655 11-11-2009 10:53:03 6.7 C 6.31 g/m*3 6.7 C 0 km/h
656 11-11-2009 11:05:02 6.6 C 6.27 g/m*3 6.6 C 0 km/h
657 11-11-2009 11:17:02 6.7 C 6.23 g/m*3 6.7 C 0 km/h
658 11-11-2009 11:29:02 7.1 C 6.32 g/m*3 7.1 C 0 km/h
659 11-11-2009 11:41:02 7.4 C 6.28 g/m*3 7.4 C 0 km/h
660 11-11-2009 11:53:02 7.5 C 6.16 g/m*3 7.5 C 0 km/h
661 11-11-2009 12:05:02 7.3 C 6 g/m*3 7.3 C 0 km/h
662 11-11-2009 12:17:02 7.3 C 6.16 g/m*3 7.3 C 0 km/h
663 11-11-2009 12:29:03 7.2 C 6.12 g/m*3 7.2 C 0 km/h
664 11-11-2009 12:41:02 7.3 C 6.16 g/m*3 7.3 C 0 km/h
665 11-11-2009 12:53:02 7.2 C 6.12 g/m*3 7.2 C 0 km/h
666 11-11-2009 13:05:01 7.4 C 6.28 g/m*3 7.4 C 0 km/h
667 11-11-2009 13:17:02 7.3 C 6.24 g/m*3 7.3 C 0 km/h
668 11-11-2009 13:29:02 7.5 C 6.24 g/m*3 7.5 C 0 km/h
669 11-11-2009 13:41:01 7.6 C 6.28 g/m*3 7.6 C 0 km/h
670 11-11-2009 13:53:02 7.6 C 6.2 g/m*3 7.6 C 0 km/h
671 11-11-2009 14:05:01 7.8 C 6.28 g/m*3 7.8 C 0 km/h
672 11-11-2009 14:17:01 7.7 C 6.16 g/m*3 7.7 C 0 km/h
673 11-11-2009 14:29:01 7.7 C 6.16 g/m*3 7.7 C 0 km/h
674 11-11-2009 14:41:02 7.7 C 6.16 g/m*3 7.7 C 0 km/h
675 11-11-2009 14:53:02 7.8 C 6.2 g/m*3 7.8 C 0 km/h
Sensor: Nr:Datum:Temp:Abs-Feuchte:Windchill:Wind:
Aussen-T/F 676 11-11-2009 15:05:02 7.7 C 6.16 g/m*3 7.7 C 0 km/h
677 11-11-2009 15:17:02 7.7 C 6.16 g/m*3 7.7 C 0 km/h
678 11-11-2009 15:29:02 7.6 C 6.2 g/m*3 7.6 C 0 km/h
679 11-11-2009 15:41:02 7.6 C 6.2 g/m*3 7.6 C 0 km/h
680 11-11-2009 15:53:01 7.7 C 6.24 g/m*3 7.7 C 0 km/h
681 11-11-2009 16:05:02 7.4 C 6.12 g/m*3 7.4 C 0 km/h
682 11-11-2009 16:17:01 7.1 C 6.08 g/m*3 7.1 C 0 km/h
683 11-11-2009 16:29:01 6.9 C 6.16 g/m*3 6.9 C 0 km/h
684 11-11-2009 16:41:02 6.8 C 6.19 g/m*3 6.8 C 0 km/h
685 11-11-2009 16:53:02 6.7 C 6.15 g/m*3 6.7 C 0 km/h
686 11-11-2009 17:05:02 6.7 C 6.23 g/m*3 6.7 C 0 km/h
687 11-11-2009 17:17:01 6.5 C 6.15 g/m*3 6.5 C 0 km/h
688 11-11-2009 17:29:01 6.5 C 6.15 g/m*3 6.5 C 0 km/h
689 11-11-2009 17:41:02 6.3 C 6.07 g/m*3 6.3 C 0 km/h
690 11-11-2009 17:53:02 6.4 C 6.11 g/m*3 6.4 C 0 km/h
691 11-11-2009 18:05:02 6.4 C 6.11 g/m*3 6.4 C 0 km/h
692 11-11-2009 18:17:01 6.6 C 6.19 g/m*3 6.6 C 0 km/h
693 11-11-2009 18:29:01 6.6 C 6.11 g/m*3 6.6 C 0 km/h
694 11-11-2009 18:41:02 6.6 C 6.11 g/m*3 6.6 C 0 km/h
695 11-11-2009 18:53:02 6.6 C 6.11 g/m*3 6.6 C 0 km/h
696 11-11-2009 19:05:02 6.6 C 6.04 g/m*3 6.6 C 0 km/h
697 11-11-2009 19:17:02 6.6 C 6.11 g/m*3 6.6 C 0 km/h
698 11-11-2009 19:29:02 6.6 C 6.11 g/m*3 6.6 C 0 km/h
699 11-11-2009 19:41:02 6.6 C 6.11 g/m*3 6.6 C 0 km/h
700 11-11-2009 19:53:02 6.4 C 6.04 g/m*3 6.4 C 0 km/h
Sensor: Nr:Datum:Temp:Abs-Feuchte:Windchill:Wind:
Aussen-T/F 701 11-11-2009 20:05:02 6.4 C 5.96 g/m*3 6.4 C 0 km/h
702 11-11-2009 20:17:02 6.4 C 5.89 g/m*3 6.4 C 0 km/h
703 11-11-2009 20:29:02 6.4 C 5.89 g/m*3 6.4 C 0 km/h
704 11-11-2009 20:41:02 6.4 C 5.89 g/m*3 6.4 C 0 km/h
705 11-11-2009 20:53:02 6.3 C 5.85 g/m*3 6.3 C 0 km/h
706 11-11-2009 21:05:02 6.3 C 5.77 g/m*3 6.3 C 0 km/h
707 11-11-2009 21:17:02 6.3 C 5.77 g/m*3 6.3 C 0 km/h
708 11-11-2009 21:29:02 6.3 C 5.77 g/m*3 6.3 C 0 km/h
709 11-11-2009 21:41:02 6.3 C 5.7 g/m*3 6.3 C 0 km/h
710 11-11-2009 21:53:01 6.2 C 5.66 g/m*3 6.2 C 0 km/h
711 11-11-2009 22:05:01 6.2 C 5.66 g/m*3 6.2 C 0 km/h
712 11-11-2009 22:18:03 6.2 C 5.66 g/m*3 6.2 C 0 km/h
713 11-11-2009 22:30:03 6 C 5.66 g/m*3 6 C 0 km/h
714 11-11-2009 22:42:03 5.7 C 5.62 g/m*3 5.7 C 0 km/h
715 11-11-2009 22:54:03 5.2 C 5.44 g/m*3 5.2 C 0 km/h
716 11-11-2009 23:06:03 4.8 C 5.5 g/m*3 4.8 C 0 km/h
717 11-11-2009 23:18:03 4.4 C 5.42 g/m*3 4.4 C 0 km/h
718 11-11-2009 23:30:03 4 C 5.34 g/m*3 4 C 0 km/h
719 11-11-2009 23:42:03 3.7 C 5.3 g/m*3 3.7 C 0 km/h
720 11-11-2009 23:54:03 3.5 C 5.29 g/m*3 3.5 C 0 km/h
721 12-11-2009 00:06:03 3.3 C 5.28 g/m*3 3.3 C 0 km/h
722 12-11-2009 00:18:03 3.1 C 5.21 g/m*3 3.1 C 0 km/h
723 12-11-2009 00:30:03 2.8 C 5.16 g/m*3 2.8 C 0 km/h
724 12-11-2009 00:42:03 2.6 C 5.15 g/m*3 2.6 C 0 km/h
725 12-11-2009 00:54:03 2.4 C 5.08 g/m*3 2.4 C 0 km/h
Sensor: Nr:Datum:Temp:Abs-Feuchte:Windchill:Wind:
Aussen-T/F 726 12-11-2009 01:06:03 2.1 C 4.98 g/m*3 2.1 C 0 km/h
727 12-11-2009 01:18:03 2 C 4.95 g/m*3 2 C 0 km/h
728 12-11-2009 01:30:03 1.8 C 4.93 g/m*3 1.8 C 0 km/h
729 12-11-2009 01:42:03 1.7 C 4.9 g/m*3 1.7 C 0 km/h
730 12-11-2009 01:54:03 1.7 C 4.9 g/m*3 1.7 C 0 km/h
731 12-11-2009 02:06:04 1.4 C 4.85 g/m*3 1.4 C 0 km/h
732 12-11-2009 02:18:04 1.3 C 4.82 g/m*3 1.3 C 0 km/h
733 12-11-2009 02:30:04 1.2 C 4.79 g/m*3 1.2 C 0 km/h
734 12-11-2009 02:42:04 1.2 C 4.79 g/m*3 1.2 C 0 km/h
735 12-11-2009 02:54:04 1.1 C 4.76 g/m*3 1.1 C 0 km/h
736 12-11-2009 03:06:04 1 C 4.72 g/m*3 1 C 0 km/h
737 12-11-2009 03:18:04 0.9 C 4.74 g/m*3 0.9 C 0 km/h
738 12-11-2009 03:30:04 0.8 C 4.71 g/m*3 0.8 C 0 km/h
739 12-11-2009 03:42:04 0.8 C 4.71 g/m*3 0.8 C 0 km/h
740 12-11-2009 03:54:04 1 C 4.78 g/m*3 1 C 0 km/h
741 12-11-2009 04:06:04 0.8 C 4.76 g/m*3 0.8 C 0 km/h
742 12-11-2009 04:18:04 0.6 C 4.7 g/m*3 0.6 C 0 km/h
743 12-11-2009 04:30:04 0.5 C 4.66 g/m*3 0.5 C 0 km/h
744 12-11-2009 04:42:04 0.4 C 4.63 g/m*3 0.4 C 0 km/h
745 12-11-2009 04:54:04 0.3 C 4.6 g/m*3 0.3 C 0 km/h
746 12-11-2009 05:06:04 0.2 C 4.57 g/m*3 0.2 C 0 km/h
747 12-11-2009 05:18:04 0.2 C 4.62 g/m*3 0.2 C 0 km/h
748 12-11-2009 05:30:04 0.4 C 4.68 g/m*3 0.4 C 0 km/h
749 12-11-2009 05:42:04 0.6 C 4.75 g/m*3 0.6 C 0 km/h
750 12-11-2009 05:54:05 0.7 C 4.83 g/m*3 0.7 C 0 km/h
Sensor: Nr:Datum:Temp:Abs-Feuchte:Windchill:Wind:
Aussen-T/F 751 12-11-2009 06:06:05 0.9 C 4.9 g/m*3 0.9 C 0 km/h
752 12-11-2009 06:18:03 1 C 4.93 g/m*3 1 C 0 km/h
753 12-11-2009 06:30:03 1.1 C 4.96 g/m*3 1.1 C 0 km/h
754 12-11-2009 06:42:03 1.1 C 4.96 g/m*3 1.1 C 0 km/h
755 12-11-2009 06:54:01 1.2 C 5 g/m*3 1.2 C 0 km/h
756 12-11-2009 07:06:02 1.3 C 5.03 g/m*3 1.3 C 0 km/h
757 12-11-2009 07:18:01 1.4 C 5.07 g/m*3 1.4 C 0 km/h
758 12-11-2009 07:30:01 1.4 C 5.07 g/m*3 1.4 C 0 km/h
759 12-11-2009 07:42:01 1.4 C 5.07 g/m*3 1.4 C 0 km/h
760 12-11-2009 07:54:01 1.7 C 5.17 g/m*3 1.7 C 0 km/h
761 12-11-2009 08:06:02 1.7 C 5.17 g/m*3 1.7 C 0 km/h
762 12-11-2009 08:18:01 1.9 C 5.24 g/m*3 1.9 C 0 km/h
763 12-11-2009 08:30:01 2.2 C 5.35 g/m*3 2.2 C 0 km/h
764 12-11-2009 08:42:02 2.3 C 5.39 g/m*3 2.3 C 0 km/h
765 12-11-2009 08:54:01 2.7 C 5.54 g/m*3 2.7 C 0 km/h
766 12-11-2009 09:06:02 3.1 C 5.69 g/m*3 3.1 C 0 km/h
767 12-11-2009 09:18:01 3.3 C 5.76 g/m*3 3.3 C 0 km/h
768 12-11-2009 09:30:01 3.5 C 5.84 g/m*3 3.5 C 0 km/h
769 12-11-2009 09:42:02 3.7 C 5.92 g/m*3 3.7 C 0 km/h
770 12-11-2009 09:54:01 3.7 C 5.92 g/m*3 3.7 C 0 km/h
771 12-11-2009 10:06:01 3.5 C 5.84 g/m*3 3.5 C 0 km/h
772 12-11-2009 10:18:02 3.5 C 5.84 g/m*3 3.5 C 0 km/h
773 12-11-2009 10:30:02 3.5 C 5.84 g/m*3 3.5 C 0 km/h
774 12-11-2009 10:42:01 3.7 C 5.92 g/m*3 3.7 C 0 km/h
775 12-11-2009 10:54:02 4 C 6.04 g/m*3 4 C 0 km/h
Sensor: Nr:Datum:Temp:Abs-Feuchte:Windchill:Wind:
Aussen-T/F 776 12-11-2009 11:06:02 4.2 C 6.12 g/m*3 4.2 C 0 km/h
777 12-11-2009 11:18:02 4.4 C 6.2 g/m*3 4.4 C 0 km/h
778 12-11-2009 11:30:02 4.6 C 6.29 g/m*3 4.6 C 0 km/h
779 12-11-2009 11:42:02 4.8 C 6.37 g/m*3 4.8 C 0 km/h
780 12-11-2009 11:54:02 5.1 C 6.5 g/m*3 5.1 C 0 km/h
781 12-11-2009 12:06:02 5.3 C 6.58 g/m*3 5.3 C 0 km/h
782 12-11-2009 12:18:01 5.5 C 6.6 g/m*3 5.5 C 0 km/h
783 12-11-2009 12:30:01 5.6 C 6.65 g/m*3 5.6 C 0 km/h
784 12-11-2009 12:42:02 5.7 C 6.62 g/m*3 5.7 C 0 km/h
785 12-11-2009 12:54:02 5.6 C 6.5 g/m*3 5.6 C 0 km/h
786 12-11-2009 13:06:02 5.7 C 6.55 g/m*3 5.7 C 0 km/h
787 12-11-2009 13:18:02 5.8 C 6.59 g/m*3 5.8 C 0 km/h
788 12-11-2009 13:30:02 5.9 C 6.56 g/m*3 5.9 C 0 km/h
789 12-11-2009 13:42:02 6.3 C 6.66 g/m*3 6.3 C 0 km/h
790 12-11-2009 13:54:02 6.6 C 6.72 g/m*3 6.6 C 0 km/h
791 12-11-2009 14:06:02 6.6 C 6.64 g/m*3 6.6 C 0 km/h
792 12-11-2009 14:18:02 6.8 C 6.73 g/m*3 6.8 C 0 km/h
793 12-11-2009 14:30:02 7 C 6.74 g/m*3 7 C 0 km/h
794 12-11-2009 14:42:02 7.3 C 6.79 g/m*3 7.3 C 0 km/h
795 12-11-2009 14:54:02 7.5 C 6.8 g/m*3 7.5 C 0 km/h
796 12-11-2009 15:06:02 7.4 C 6.76 g/m*3 7.4 C 0 km/h
797 12-11-2009 15:18:02 7.3 C 6.72 g/m*3 7.3 C 0 km/h
798 12-11-2009 15:30:02 7.3 C 6.79 g/m*3 7.3 C 0 km/h
799 12-11-2009 15:42:02 7.4 C 6.84 g/m*3 7.4 C 0 km/h
800 12-11-2009 15:54:02 7.4 C 6.92 g/m*3 7.4 C 0 km/h
Sensor: Nr:Datum:Temp:Abs-Feuchte:Windchill:Wind:
Aussen-T/F 801 12-11-2009 16:06:02 7.5 C 6.96 g/m*3 7.5 C 0 km/h
802 12-11-2009 16:18:03 7.5 C 6.96 g/m*3 7.5 C 0 km/h
803 12-11-2009 16:30:03 7.5 C 6.96 g/m*3 7.5 C 0 km/h
804 12-11-2009 16:42:02 7.5 C 6.96 g/m*3 7.5 C 0 km/h
805 12-11-2009 16:54:02 7.6 C 7.01 g/m*3 7.6 C 0 km/h
806 12-11-2009 17:06:02 7.7 C 7.05 g/m*3 7.7 C 0 km/h
807 12-11-2009 17:18:02 7.7 C 7.14 g/m*3 7.7 C 0 km/h
808 12-11-2009 17:30:02 7.7 C 7.14 g/m*3 7.7 C 0 km/h
809 12-11-2009 17:42:02 7.8 C 7.18 g/m*3 7.8 C 0 km/h
810 12-11-2009 17:54:02 7.9 C 7.23 g/m*3 7.9 C 0 km/h
811 12-11-2009 18:06:02 8 C 7.19 g/m*3 8 C 0 km/h
812 12-11-2009 18:18:02 8.2 C 7.29 g/m*3 8.2 C 0 km/h
813 12-11-2009 18:30:02 8.1 C 7.16 g/m*3 8.1 C 0 km/h
814 12-11-2009 18:42:02 8 C 7.11 g/m*3 8 C 0 km/h
815 12-11-2009 18:54:02 7.9 C 7.23 g/m*3 7.9 C 0 km/h
816 12-11-2009 19:06:02 7.9 C 7.23 g/m*3 7.9 C 0 km/h
817 12-11-2009 19:18:02 7.9 C 7.31 g/m*3 7.9 C 0 km/h
818 12-11-2009 19:30:03 7.9 C 7.31 g/m*3 7.9 C 0 km/h
819 12-11-2009 19:42:02 7.8 C 7.26 g/m*3 7.8 C 0 km/h
820 12-11-2009 19:54:02 7.8 C 7.26 g/m*3 7.8 C 0 km/h
821 12-11-2009 20:06:01 7.8 C 7.35 g/m*3 7.8 C 0 km/h
822 12-11-2009 20:18:02 7.8 C 7.35 g/m*3 7.8 C 0 km/h
823 12-11-2009 20:30:02 7.8 C 7.35 g/m*3 7.8 C 0 km/h
824 12-11-2009 20:42:02 7.6 C 7.33 g/m*3 7.6 C 0 km/h
825 12-11-2009 20:54:01 7.6 C 7.33 g/m*3 7.6 C 0 km/h
Sensor: Nr:Datum:Temp:Abs-Feuchte:Windchill:Wind:
Aussen-T/F 826 12-11-2009 21:06:02 7.5 C 7.28 g/m*3 7.5 C 0 km/h
827 12-11-2009 21:18:01 7.3 C 7.27 g/m*3 7.3 C 0 km/h
828 12-11-2009 21:30:01 7.1 C 7.18 g/m*3 7.1 C 0 km/h
829 12-11-2009 21:42:01 7 C 7.13 g/m*3 7 C 0 km/h
830 12-11-2009 21:54:01 7.1 C 7.25 g/m*3 7.1 C 0 km/h
831 12-11-2009 22:07:01 7.4 C 7.4 g/m*3 7.4 C 0 km/h
832 12-11-2009 22:19:01 7.5 C 7.52 g/m*3 7.5 C 0 km/h
833 12-11-2009 22:31:01 7.2 C 7.3 g/m*3 7.2 C 0 km/h
834 12-11-2009 22:43:01 7.3 C 7.35 g/m*3 7.3 C 0 km/h
835 12-11-2009 22:55:01 7.6 C 7.49 g/m*3 7.6 C 0 km/h
836 12-11-2009 23:07:01 8.1 C 7.66 g/m*3 8.1 C 0 km/h
837 12-11-2009 23:19:01 7.9 C 7.47 g/m*3 7.9 C 0 km/h
838 12-11-2009 23:31:02 8 C 7.36 g/m*3 8 C 0 km/h
839 12-11-2009 23:43:02 8.3 C 7.5 g/m*3 8.3 C 0 km/h
840 12-11-2009 23:55:02 8.6 C 7.48 g/m*3 8.6 C 0 km/h

Legende:
   Min
   Max


Maximal/Minimal-Werte vom 14.04.2020 - 16.05.2020

Sensor Min Max Avg
Temp
(Aussen-T/F)
-0.1 °C
15-04-2020  06:55:00
26.2 °C
17-04-2020  18:05:00
11.98 °C

Die Daten stammen von einer Davis Vantage Pro 2 Wetter-Station und werden unter Linux mit der Software wview2wettercgi und aufbereitet. Alle Angaben erfolgen ohne Gewähr für ihre Vollständigkeit oder Richtigkeit.
Kontakt: Rainer Krienke krienke@uni-koblenz.de . Meine Webseiten an der Uni Koblenz oder privat.
Version: $Revision: 0.78 $